Weather History for KBPC - March, 2013

Change the Weather History Date:

Friday, March 15, 2013

  Actual Average (KBGD) Record (KBGD)
Temperature  
Mean Temperature 62 °F 49 °F  
Max Temperature 84 °F 63 °F 85 °F (2012)
Min Temperature 41 °F 36 °F 19 °F (1949)
Degree Days  
Heating Degree Days 2 16  
Month to date heating degree days 270  
Since 1 July heating degree days 3263  
Cooling Degree Days 0 0  
Month to date cooling degree days 0  
Year to date cooling degree days 0  
Growing Degree Days 12 (Base 50)    
Moisture  
Dew Point 31 °F    
Average Humidity 40    
Maximum Humidity 76    
Minimum Humidity 11    
Precipitation  
Precipitation 0.00 in 0.04 in 1.05 in (1998)
Month to date precipitation 0.65  
Year to date precipitation 1.86  
Snow  
Snow 0.00 in - 1.50 in (1969)
Month to date snowfall  
Since 1 July snowfall  
Snow Depth -    
Sea Level Pressure  
Sea Level Pressure 29.95 in    
Wind  
Wind Speed 7 mph (SW)    
Max Wind Speed 15 mph    
Max Gust Speed 22 mph    
Visibility 10 miles    
Events      
T = Trace of Precipitation, MM = Missing Value Source: NWS Daily Summary

Daily Weather History Graph

Daily Weather History Graph

Search for Another Location

Airport or City:

Trip Planner

Search our weather history database for the weather conditions in past years. The results will help you decide how hot, cold, wet, or windy it might be!

Date:

Astronomy

Mar. 15, 2013 Rise Set
Actual Time 7:54 AM CDT 7:51 PM CDT
Civil Twilight 7:28 AM CDT 8:17 PM CDT
Nautical Twilight 6:59 AM CDT 8:47 PM CDT
Astronomical Twilight 6:29 AM CDT 9:17 PM CDT
Moon 9:54 AM CDT (3/15) 11:58 PM CDT (3/15)
Length of Visible Light 12h 48m
Length of Day
11h 57m
Waxing Crescent, 15% of the Moon is Illuminated
Mar 15
Waxing Crescent
Mar 19
First Quarter
Mar 27
Full
Apr 2
Last Quarter
Apr 10
New

Hourly Weather History & Observations

Time (CDT) Temp. Windchill Dew Point Humidity Pressure Visibility Wind Dir Wind Speed Gust Speed Precip Events Conditions
12:15 AM 59.0 °F - 37.4 °F 45% 30.14 in 10.0 mi Calm Calm - N/A   Clear
12:35 AM 55.4 °F - 35.6 °F 47% 30.13 in 10.0 mi Calm Calm - N/A   Clear
12:55 AM 51.8 °F - 35.6 °F 54% 30.13 in 10.0 mi WNW 4.6 mph - N/A   Clear
1:15 AM 51.8 °F - 35.6 °F 54% 30.12 in 10.0 mi Calm Calm - N/A   Clear
1:35 AM 51.8 °F - 35.6 °F 54% 30.10 in 10.0 mi ESE 3.5 mph - N/A   Clear
1:55 AM 46.4 °F 41.1 °F 35.6 °F 66% 30.10 in 10.0 mi WNW 11.5 mph - N/A   Clear
2:15 AM 46.4 °F 42.9 °F 35.6 °F 66% 30.11 in 10.0 mi West 6.9 mph - N/A   Clear
2:35 AM 42.8 °F 39.3 °F 33.8 °F 70% 30.10 in 10.0 mi SW 5.8 mph - N/A   Clear
2:55 AM 42.8 °F 38.6 °F 35.6 °F 76% 30.10 in 10.0 mi WSW 6.9 mph - N/A   Clear
3:15 AM 41.0 °F 35.2 °F 33.8 °F 76% 30.09 in 10.0 mi WSW 9.2 mph - N/A   Clear
3:35 AM 42.8 °F 38.6 °F 33.8 °F 70% 30.08 in 10.0 mi SW 6.9 mph - N/A   Clear
3:55 AM 44.6 °F 40.7 °F 35.6 °F 71% 30.07 in 10.0 mi SW 6.9 mph - N/A   Clear
4:15 AM 42.8 °F 38.6 °F 35.6 °F 76% 30.07 in 10.0 mi SSW 6.9 mph - N/A   Clear
4:35 AM 44.6 °F 43.1 °F 35.6 °F 71% 30.06 in 10.0 mi SSW 3.5 mph - N/A   Clear
4:55 AM 42.8 °F 39.3 °F 35.6 °F 76% 30.05 in 10.0 mi SW 5.8 mph - N/A   Clear
5:15 AM 41.0 °F 35.2 °F 33.8 °F 76% 30.04 in 10.0 mi SW 9.2 mph - N/A   Clear
5:35 AM 42.8 °F 37.5 °F 35.6 °F 76% 30.04 in 10.0 mi WSW 9.2 mph - N/A   Clear
5:55 AM 44.6 °F 39.2 °F 35.6 °F 71% 30.04 in 10.0 mi WSW 10.4 mph - N/A   Clear
6:15 AM 44.6 °F 39.7 °F 35.6 °F 71% 30.04 in 10.0 mi WSW 9.2 mph - N/A   Clear
6:35 AM 44.6 °F 40.2 °F 35.6 °F 71% 30.04 in 10.0 mi WSW 8.1 mph - N/A   Clear
6:55 AM 44.6 °F 40.7 °F 35.6 °F 71% 30.04 in 10.0 mi WSW 6.9 mph - N/A   Clear
7:15 AM 44.6 °F 40.2 °F 35.6 °F 71% 30.03 in 10.0 mi SW 8.1 mph - N/A   Clear
7:35 AM 44.6 °F 40.7 °F 35.6 °F 71% 30.03 in 10.0 mi SW 6.9 mph - N/A   Clear
7:55 AM 44.6 °F 39.2 °F 35.6 °F 71% 30.04 in 10.0 mi WSW 10.4 mph - N/A   Clear
8:15 AM 44.6 °F 40.2 °F 35.6 °F 71% 30.04 in 10.0 mi SW 8.1 mph - N/A   Clear
8:35 AM 46.4 °F 41.1 °F 35.6 °F 66% 30.04 in 10.0 mi SW 11.5 mph 17.3 mph N/A   Clear
8:55 AM 48.2 °F - 35.6 °F 62% 30.04 in 10.0 mi WSW 15.0 mph - N/A   Clear
9:15 AM 50.0 °F - 33.8 °F 54% 30.04 in 10.0 mi WSW 13.8 mph - N/A   Clear
9:35 AM 51.8 °F - 33.8 °F 50% 30.04 in 10.0 mi WSW 9.2 mph - N/A   Clear
9:55 AM 53.6 °F - 33.8 °F 47% 30.03 in 10.0 mi SW 8.1 mph - N/A   Clear
10:55 AM 66.2 °F - 32.0 °F 28% 30.00 in 10.0 mi WSW 13.8 mph - N/A   Clear
11:15 AM 68.0 °F - 32.0 °F 26% 30.00 in 10.0 mi WSW 11.5 mph - N/A   Clear
11:35 AM 71.6 °F - 32.0 °F 23% 29.99 in 10.0 mi WSW 9.2 mph - N/A   Clear
11:55 AM 73.4 °F - 32.0 °F 22% 29.98 in 10.0 mi WSW 9.2 mph - N/A   Clear
12:15 PM 77.0 °F - 30.2 °F 18% 29.98 in 10.0 mi SW 11.5 mph - N/A   Clear
12:35 PM 78.8 °F - 28.4 °F 16% 29.97 in 10.0 mi SW 15.0 mph 20.7 mph N/A   Clear
12:55 PM 78.8 °F - 28.4 °F 16% 29.95 in 10.0 mi SW 15.0 mph 21.9 mph N/A   Clear
1:15 PM 80.6 °F - 28.4 °F 15% 29.94 in 10.0 mi SSW 13.8 mph 18.4 mph N/A   Clear
1:35 PM 82.4 °F - 26.6 °F 13% 29.93 in 10.0 mi SW 13.8 mph - N/A   Clear
1:55 PM 82.4 °F - 26.6 °F 13% 29.92 in 10.0 mi WSW 15.0 mph - N/A   Clear
2:15 PM 82.4 °F - 26.6 °F 13% 29.91 in 10.0 mi West 10.4 mph 17.3 mph N/A   Clear
2:35 PM 82.4 °F - 26.6 °F 13% 29.90 in 10.0 mi SW 11.5 mph - N/A   Clear
2:55 PM 82.4 °F - 24.8 °F 12% 29.89 in 10.0 mi WSW 13.8 mph 17.3 mph N/A   Clear
3:15 PM 82.4 °F - 24.8 °F 12% 29.88 in 10.0 mi WSW 12.7 mph 17.3 mph N/A   Clear
3:35 PM 82.4 °F - 24.8 °F 12% 29.87 in 10.0 mi West 11.5 mph 17.3 mph N/A   Clear
3:55 PM 84.2 °F - 26.6 °F 12% 29.86 in 10.0 mi SW 8.1 mph 16.1 mph N/A   Clear
4:15 PM 84.2 °F - 26.6 °F 12% 29.85 in 10.0 mi West 10.4 mph - N/A   Clear
4:35 PM 84.2 °F - 24.8 °F 11% 29.84 in 10.0 mi West 6.9 mph - N/A   Clear
4:55 PM 82.4 °F - 23.0 °F 11% 29.83 in 10.0 mi West 10.4 mph - N/A   Clear
5:15 PM 82.4 °F - 23.0 °F 11% 29.82 in 10.0 mi WSW 8.1 mph - N/A   Clear
5:35 PM 84.2 °F - 23.0 °F 11% 29.82 in 10.0 mi WSW 10.4 mph - N/A   Clear
5:55 PM 84.2 °F - 23.0 °F 11% 29.82 in 10.0 mi West 11.5 mph - N/A   Clear
6:15 PM 82.4 °F - 23.0 °F 11% 29.81 in 10.0 mi WSW 4.6 mph - N/A   Clear
6:35 PM 82.4 °F - 23.0 °F 11% 29.81 in 10.0 mi West 8.1 mph - N/A   Clear
6:55 PM 80.6 °F - 23.0 °F 12% 29.80 in 10.0 mi Calm Calm - N/A   Clear
7:15 PM 78.8 °F - 23.0 °F 13% 29.80 in 10.0 mi West 4.6 mph - N/A   Clear
7:35 PM 77.0 °F - 23.0 °F 13% 29.80 in 10.0 mi WSW 3.5 mph - N/A   Clear
7:55 PM 71.6 °F - 23.0 °F 16% 29.80 in 10.0 mi SW 3.5 mph - N/A   Clear
8:15 PM 66.2 °F - 28.4 °F 24% 29.80 in 10.0 mi SSW 3.5 mph - N/A   Clear
8:35 PM 62.6 °F - 30.2 °F 30% 29.79 in 10.0 mi SSW 4.6 mph - N/A   Clear
8:55 PM 59.0 °F - 32.0 °F 36% 29.79 in 10.0 mi SSW 5.8 mph - N/A   Clear
9:15 PM 59.0 °F - 30.2 °F 34% 29.79 in 10.0 mi SSW 4.6 mph - N/A   Clear
9:35 PM 57.2 °F - 30.2 °F 36% 29.79 in 10.0 mi SSW 5.8 mph - N/A   Clear
9:55 PM 55.4 °F - 30.2 °F 38% 29.79 in 10.0 mi SSE 3.5 mph - N/A   Clear
10:15 PM 59.0 °F - 30.2 °F 34% 29.79 in 10.0 mi SSE 3.5 mph - N/A   Clear
10:35 PM 59.0 °F - 32.0 °F 36% 29.79 in 10.0 mi Calm Calm - N/A   Clear
10:55 PM 53.6 °F - 30.2 °F 41% 29.79 in 10.0 mi WSW 9.2 mph - N/A   Clear
11:15 PM 53.6 °F - 30.2 °F 41% 29.78 in 10.0 mi SW 10.4 mph - N/A   Clear
11:35 PM 55.4 °F - 28.4 °F 36% 29.78 in 10.0 mi SW 12.7 mph - N/A   Clear
11:55 PM 53.6 °F - 26.6 °F 35% 29.77 in 10.0 mi SSW 10.4 mph - N/A   Clear